Location: Ellerstadt
(49.4644°N, 8.2615°E)
Time: 00:05:59
(UTC+00:00)

FALCON 9 DEB - Pass Details

Date: 03 March 2021
Orbit: 367 x 387 km, 53.0° (Epoch: 12 April)

Event Time Altitude Azimuth Distance (km) Brightness Sun altitude
Rises 19:30:25 0° 291° (WNW) 2,291 8.3 -22.9°
Reaches altitude 10° 19:32:31 10° 295° (WNW) 1,432 6.8 -23.2°
Enters shadow 19:34:36 35° 312° (NW) 651 4.5 -23.5°
